Lake Hood, AK

7:03 PM AKDT on October 17, 2017 (GMT -0800)
Lake Hood

Weather History for PALH - February, 2013

Change the Weather History Date:

Saturday, February 23, 2013

  Actual Average Record
Temperature  
Mean Temperature 17 °F -  
Max Temperature 24 °F 29 °F 44 °F (2015)
Min Temperature 10 °F 18 °F -2 °F (2007)
Degree Days  
Heating Degree Days 48    
Moisture  
Dew Point 17 °F    
Average Humidity 82    
Maximum Humidity 93    
Minimum Humidity 71    
Precipitation  
Precipitation 0.00 in - - ()
Sea Level Pressure  
Sea Level Pressure 29.26 in    
Wind  
Wind Speed 4 mph (NNE)    
Max Wind Speed 9 mph    
Max Gust Speed -    
Visibility 7 miles    
Events Snow    
Averages and records for this station are not official NWS values.
T = Trace of Precipitation, MM = Missing Value Source: NWS Daily Summary

Daily Weather History Graph

Daily Weather History Graph

Search for Another Location

Airport or City:

Trip Planner

Search our weather history database for the weather conditions in past years. The results will help you decide how hot, cold, wet, or windy it might be!

Date:

Astronomy

Feb. 23, 2013 Rise Set
Actual Time 8:17 AM AKST 6:10 PM AKST
Civil Twilight 7:33 AM AKST 6:54 PM AKST
Nautical Twilight 6:43 AM AKST 7:44 PM AKST
Astronomical Twilight 5:53 AM AKST 8:34 PM AKST
Moon 4:15 PM AKST (2/23) 7:06 AM AKST (2/23)
Length of Visible Light 11h 21m
Length of Day
9h 52m
Waxing Gibbous, 96% of the Moon is Illuminated
Feb 23
Waxing Gibbous
Feb 25
Full
Mar 4
Last Quarter
Mar 11
New
Mar 19
First Quarter

Hourly Weather History & Observations

Time (AKST) Temp. Windchill Dew Point Humidity Pressure Visibility Wind Dir Wind Speed Gust Speed Precip Events Conditions
12:53 AM 10.9 °F - 7.0 °F 84% 29.37 in 10.0 mi Calm Calm - N/A   Clear
1:53 AM 15.1 °F 9.4 °F 10.0 °F 80% 29.37 in 10.0 mi West 3.5 mph - N/A   Clear
3:53 AM 18.0 °F 11.1 °F 15.1 °F 88% 29.33 in 10.0 mi NNE 4.6 mph - N/A   Overcast
4:53 AM 17.1 °F 8.7 °F 12.9 °F 84% 29.32 in 10.0 mi North 5.8 mph - N/A   Overcast
5:53 AM 17.1 °F 6.6 °F 12.9 °F 84% 29.30 in 10.0 mi North 8.1 mph - N/A   Overcast
6:53 AM 18.0 °F 12.7 °F 12.9 °F 81% 29.29 in 10.0 mi NNE 3.5 mph - N/A   Overcast
7:53 AM 18.0 °F 6.9 °F 12.9 °F 81% 29.26 in 10.0 mi NNE 9.2 mph - N/A   Overcast
8:53 AM 19.0 °F 8.2 °F 12.9 °F 77% 29.24 in 10.0 mi North 9.2 mph - N/A   Overcast
9:53 AM 18.0 °F 8.7 °F 12.9 °F 81% 29.22 in 10.0 mi North 6.9 mph - N/A   Overcast
10:53 AM 18.0 °F 6.9 °F 12.0 °F 78% 29.21 in 10.0 mi North 9.2 mph - N/A   Overcast
11:53 AM 19.0 °F 9.0 °F 12.0 °F 74% 29.21 in 10.0 mi North 8.1 mph - N/A   Clear
12:53 PM 19.9 °F 11.1 °F 12.9 °F 74% 29.20 in 10.0 mi North 6.9 mph - N/A   Partly Cloudy
1:53 PM 21.0 °F 11.4 °F 14.0 °F 74% 29.19 in 10.0 mi North 8.1 mph - N/A   Scattered Clouds
2:53 PM 23.0 °F 13.1 °F 15.1 °F 72% 29.18 in 10.0 mi NNE 9.2 mph - N/A   Mostly Cloudy
3:53 PM 24.1 °F 16.0 °F 16.0 °F 71% 29.17 in 10.0 mi NNE 6.9 mph - N/A   Overcast
4:53 PM 24.1 °F 18.2 °F 17.1 °F 75% 29.20 in 10.0 mi North 4.6 mph - N/A   Overcast
5:53 PM 24.1 °F 17.0 °F 18.0 °F 77% 29.21 in 2.0 mi NE 5.8 mph - 0.00 in Snow Light Snow
6:00 PM 24.8 °F 19.1 °F 17.6 °F 74% 29.21 in 1.5 mi NE 4.6 mph - 0.00 in Snow Light Snow
6:09 PM 24.8 °F 20.5 °F 19.4 °F 80% 29.21 in 2.0 mi ENE 3.5 mph - 0.00 in Snow Light Snow
6:17 PM 24.8 °F 17.9 °F 19.4 °F 80% 29.21 in 1.0 mi ENE 5.8 mph - 0.00 in Snow Light Snow
6:32 PM 24.8 °F 20.5 °F 19.4 °F 80% 29.22 in 2.0 mi NNE 3.5 mph - 0.00 in Snow Light Snow
6:40 PM 24.8 °F 19.1 °F 19.4 °F 80% 29.22 in 1.5 mi NNE 4.6 mph - 0.00 in Snow Light Snow
6:53 PM 23.0 °F 17.0 °F 19.9 °F 88% 29.22 in 1.5 mi NNE 4.6 mph - 0.00 in Snow Light Snow
6:58 PM 23.0 °F - 19.4 °F 86% 29.22 in 3.0 mi Calm Calm - 0.00 in Snow Light Snow
7:18 PM 23.0 °F 17.0 °F 19.4 °F 86% 29.23 in 10.0 mi NNE 4.6 mph - 0.00 in   Overcast
7:53 PM 23.0 °F - 19.9 °F 88% 29.26 in 1.5 mi Calm Calm - 0.00 in Snow Light Snow
8:05 PM 23.0 °F - 19.4 °F 86% 29.26 in 2.0 mi Calm Calm - 0.00 in Snow Light Snow
8:13 PM 23.0 °F - 19.4 °F 86% 29.26 in 4.0 mi Calm Calm - 0.00 in Snow Light Snow
8:53 PM 21.9 °F - 19.9 °F 92% 29.28 in 10.0 mi Calm Calm - 0.00 in   Overcast
9:12 PM 24.8 °F - 21.2 °F 86% 29.28 in 1.8 mi Calm Calm - 0.00 in Snow Light Snow
9:19 PM 23.0 °F 18.4 °F 21.2 °F 93% 29.28 in 3.0 mi NE 3.5 mph - 0.00 in Snow Light Snow
9:41 PM 23.0 °F - 19.4 °F 86% 29.29 in 10.0 mi Calm Calm - 0.00 in   Overcast
9:53 PM 24.1 °F - 21.0 °F 88% 29.30 in 10.0 mi Calm Calm - 0.00 in   Overcast
10:43 PM 23.0 °F - 19.4 °F 86% 29.31 in 10.0 mi Calm Calm - 0.00 in   Overcast
10:53 PM 23.0 °F - 19.9 °F 88% 29.32 in 10.0 mi Calm Calm - 0.00 in   Overcast
11:37 PM 24.8 °F - 21.2 °F 86% 29.33 in 10.0 mi Calm Calm - N/A   Overcast
11:53 PM 24.1 °F - 21.0 °F 88% 29.34 in 10.0 mi Calm Calm - N/A   Overcast